Regional Weather Roundup
Issued by NWS

Home | Current Version | Previous Version | Text Only | Print | Product List | Glossary Off
Versions: 1 2 3 4 5 6 7 8 9 10 11 12 13 14 15 16 17 18 19 20 21 22 23 24 25 26 27 28 29 30 31 32 33 34 35 36 37 38 39 40 41 42 43 44 45 46 47 48 49 50

000
ASUS45 KBOU 280507
RWRCO

WEATHER ROUNDUP FOR COLORADO
NATIONAL WEATHER SERVICE DENVER/BOULDER CO
1100 PM MDT SAT MAY 27 2017

NOTE: "FAIR" INDICATES FEW OR NO CLOUDS BELOW 12000 FEET WITH NO
SIGNIFICANT WEATHER AND/OR OBSTRUCTIONS TO VISIBILITY.

COZ001>005-013-030-031-280600-
...NORTHWEST COLORADO...

CITY           SKY/WX    TMP DP  RH WIND       PRES   REMARKS
CRAIG          FAIR      45  36  70 E7        30.30R
HAYDEN         FAIR      43  32  65 E7        30.32R
MEEKER         FAIR      42  33  70 NE6       30.30R
RABBIT EARS PA NOT AVBL
STEAMBOAT SPGS NOT AVBL
WALDEN         NOT AVBL
$$

COZ006>008-011-280600-
...WEST CENTRAL VALLEYS...

CITY           SKY/WX    TMP DP  RH WIND       PRES   REMARKS
GRAND JUNCTION FAIR      59  26  28 NE9       30.21R
MONTROSE       FAIR      50  31  48 S5        30.27R
EAGLE          FAIR      41  34  76 E5        30.36R
RIFLE          FAIR      49  29  46 SE6       30.28R
DELTA          FAIR      56  28  34 SE5       30.24R
NUCLA          FAIR      55  23  28 CALM      30.28R
$$

COZ017>023-064>068-280600-
...SOUTHWEST COLORADO...

CITY           SKY/WX    TMP DP  RH WIND       PRES   REMARKS
DURANGO        FAIR      52  22  30 N7        30.20R
CORTEZ         FAIR      49  24  37 NE5       30.20R
PAGOSA SPRINGS FAIR      46  20  35 CALM      30.27R
TELLURIDE      FAIR      44  28  51 CALM      30.38S
WOLF CREEK PAS NOT AVBL
$$

COZ009-010-012-014-032>034-037-058>063-280600-
...CENTRAL COLORADO...

CITY           SKY/WX    TMP DP  RH WIND       PRES   REMARKS
ASPEN          FAIR      36  33  89 SW9       30.35R
BUENA VISTA    FAIR      41  29  61 NW14G20   30.34S
COPPER MTN     NOT AVBL
BERTHOUD PASS  NOT AVBL
COTTONWOOD PAS NOT AVBL
GUNNISON       FAIR      41  26  55 CALM      30.33R
KREMMLING      NOT AVBL
LEADVILLE      FAIR      28  25  88 E5        30.40R WCI  23
SALIDA         FAIR      47  30  52 NW8       30.41R
SUNLIGHT       NOT AVBL
WILKERSON PASS NOT AVBL
$$

COZ069>075-280600-
...SAN LUIS VALLEY/SANGRE DE CRISTO MOUNTAINS...

CITY           SKY/WX    TMP DP  RH WIND       PRES   REMARKS
ALAMOSA        FAIR      50  28  42 N10       30.27S
DEL NORTE      NOT AVBL
LA VETA PASS   NOT AVBL
SAGUACHE       NOT AVBL
$$

COZ035-036-038>040-280600-
...NORTHERN COLORADO FRONT RANGE...

CITY           SKY/WX    TMP DP  RH WIND       PRES   REMARKS
DENVER INTL AP FAIR      46  41  82 SW7       30.26R
DMNS CITY PARK   N/A     48  42  80 SW6       30.26S
AURORA         PTCLDY    45  41  85 SW7       30.27R
FRONT RANGE AP NOT AVBL
ERIE MUNI ARPT NOT AVBL
BOULDER MUN AP NOT AVBL
CENTENNIAL     FAIR      43  39  86 SW5       30.27S
BROOMFIELD     NOT AVBL
FORT COLLINS   FAIR      47  42  83 SW3       30.25R
LONGMONT       NOT AVBL
$$

COZ041-046-047-076>085-087-088-280600-
...PIKES PEAK/PALMER DIVIDE AND SOUTHERN FOOTHILLS...

CITY           SKY/WX    TMP DP  RH WIND       PRES   REMARKS
COLO. SPRINGS  FAIR      47  40  76 N8        30.30R
A. F. ACADEMY  FAIR      39  37  93 N7        30.31R
SCHRIEVER AFB  FAIR      45  38  75 N9G17     30.30R
CHEYENNE MTN   MOCLDY    46  36  68 N7        30.26R
ELLICOTT       FAIR     N/A N/A N/A N6        30.29R
FALCON         FAIR      41  37  83 NW7       30.32S
FORT CARSON    FAIR      46  40  80 W3        30.28S
LIMON          FAIR      42  41  96 NW5       30.26R
MONUMENT HILL  NOT AVBL
CANON CITY     NOT AVBL
WALSENBURG     CLOUDY    48  46  93 SW6       30.32F
TRINIDAD       MOCLDY    46  42  86 SW5       30.31S
$$

COZ042>045-048>051-090-091-280600-
...NORTHEAST COLORADO...

CITY           SKY/WX    TMP DP  RH WIND       PRES   REMARKS
GREELEY ARPT   FAIR      46  43  89 NW3       30.24R
AKRON          FAIR      44  39  82 W10       30.21R
BURLINGTON     FAIR      49  47  93 NW8       30.19R
WRAY           FAIR      46  43  87 W6        30.15S
YUMA           NOT AVBL
STERLING       NOT AVBL
HOLYOKE        NOT AVBL
FORT MORGAN    FAIR      46  41  84 W9        30.21S
$$

COZ086-089-092>099-280600-
...SOUTHEAST COLORADO...

CITY           SKY/WX    TMP DP  RH WIND       PRES   REMARKS
PUEBLO         FAIR      52  48  86 NW6       30.26R
LA JUNTA       FAIR      52  48  86 SW10      30.22F
LAMAR          FAIR      52  49  89 W6        30.18F
SPRINGFIELD      N/A     49  47  93 NW16      30.17F
$$



USA.gov is the U.S. government's official web portal to all federal, state and local government web resources and services.